Location: Ellerstadt
(49.4644°N, 8.2615°E)
Time: 08:00:42
(UTC+00:00)

FALCON 9 DEB - Visible Passes

Search period start: 16 June 2021 00:00
Search period end: 26 June 2021 00:00
Orbit: 364 x 376 km, 53.0° (Epoch: 15 June)

Date Brightness Start Highest point End Pass type
(mag) Time Alt. Az. Time Alt. Az. Time Alt. Az.
16 Jun 3.8 00:19:39 10° W 00:22:40 48° NNW 00:25:42 10° ENE visible
16 Jun 4.1 01:55:37 10° WNW 01:58:37 45° N 02:01:36 10° E visible
16 Jun 4.2 21:44:47 22° ESE 21:44:47 22° ESE 21:46:37 10° E visible
16 Jun 3.1 23:16:35 12° WSW 23:19:24 70° NNW 23:22:29 10° ENE visible
17 Jun 4.3 00:52:19 10° WNW 00:55:17 40° N 00:58:14 10° ENE visible
17 Jun 3.1 02:28:04 10° WNW 02:31:09 74° NNE 02:34:13 10° ESE visible
17 Jun 4.8 20:40:02 11° SSE 20:41:05 12° SE 20:42:29 10° ESE visible
17 Jun 2.7 22:13:07 10° SW 22:16:12 67° SSE 22:19:16 10° ENE visible
17 Jun 4.0 23:48:56 10° W 23:51:55 44° N 23:54:54 10° ENE visible
18 Jun 3.8 01:24:50 10° WNW 01:27:51 49° NNE 01:30:52 10° E visible
18 Jun 3.5 21:10:15 10° SSW 21:13:04 33° SE 21:15:55 10° ENE visible
18 Jun 3.4 22:45:31 10° W 22:48:35 59° NNW 22:51:39 10° ENE visible
19 Jun 4.2 00:21:31 10° WNW 00:24:30 41° N 00:27:27 10° ENE visible
19 Jun 2.8 01:57:12 10° WNW 02:00:19 89° S 02:03:23 10° ESE visible
19 Jun 2.7 21:42:11 10° WSW 21:45:18 85° SSE 21:48:24 10° ENE visible
19 Jun 4.2 23:18:06 10° WNW 23:21:06 41° N 23:24:03 10° ENE visible
20 Jun 3.5 00:53:57 10° WNW 00:57:00 56° NNE 01:00:03 10° E visible
20 Jun 3.4 02:29:40 10° WNW 02:32:32 35° SW 02:35:22 10° SSE visible
20 Jun 3.1 20:39:08 10° SW 20:42:05 43° SSE 20:45:03 10° ENE visible
20 Jun 3.7 22:14:39 10° W 22:17:41 51° NNW 22:20:44 10° ENE visible
20 Jun 4.1 23:50:38 10° WNW 23:53:37 43° N 23:56:36 10° E visible
21 Jun 2.7 01:26:16 10° WNW 01:29:22 71° SSW 01:32:25 10° ESE visible
21 Jun 3.0 21:11:13 10° WSW 21:14:19 78° NNW 21:17:25 10° ENE visible
21 Jun 4.3 22:47:13 10° WNW 22:50:10 40° N 22:53:07 10° ENE visible
22 Jun 3.2 00:22:58 10° WNW 00:26:03 67° NNE 00:29:07 10° ESE visible
22 Jun 3.8 01:58:48 10° W 02:01:29 27° SW 02:04:08 10° SSE visible
22 Jun 4.0 21:43:42 10° W 21:46:42 46° N 21:49:43 10° ENE visible
22 Jun 3.9 23:19:38 10° WNW 23:22:39 47° N 23:25:39 10° E visible
23 Jun 2.8 00:55:17 10° WNW 00:58:19 55° SSW 01:01:20 10° SE visible
23 Jun 3.3 20:40:12 10° WSW 20:43:17 65° NNW 20:46:21 10° ENE visible
23 Jun 4.2 22:16:12 10° WNW 22:19:10 40° N 22:22:08 10° ENE visible
23 Jun 2.8 23:51:54 10° WNW 23:55:00 81° NNE 23:57:42 13° ESE visible
24 Jun 4.5 01:27:55 10° W 01:29:28 18° WSW 01:29:28 18° WSW visible
24 Jun 4.2 21:12:41 10° W 21:15:39 43° N 21:18:38 10° ENE visible
24 Jun 3.6 22:48:32 10° WNW 22:51:36 52° NNE 22:54:37 10° E visible
25 Jun 3.4 00:24:13 10° WNW 00:26:43 38° WSW 00:26:43 38° WSW visible
25 Jun 4.1 21:45:06 10° WNW 21:48:05 42° N 21:51:03 10° ENE visible
25 Jun 2.7 23:20:45 10° WNW 23:23:51 82° SSW 23:24:37 48° SE visible
